St. James, MN

1:53 PM CDT on April 25, 2017 (GMT -0500)
Saint James Municipal

Weather History for KJYG - October, 2011

Change the Weather History Date:

Wednesday, October 19, 2011

  Actual Average Record
Temperature  
Mean Temperature 37 °F -  
Max Temperature 48 °F 58 °F 86 °F (2003)
Min Temperature 26 °F 33 °F 13 °F (1972)
Degree Days  
Heating Degree Days 28    
Moisture  
Dew Point 29 °F    
Average Humidity 67    
Maximum Humidity 81    
Minimum Humidity 54    
Precipitation  
Precipitation 0.00 in - - ()
Sea Level Pressure  
Sea Level Pressure 30.09 in    
Wind  
Wind Speed 10 mph (NW)    
Max Wind Speed 17 mph    
Max Gust Speed 22 mph    
Visibility 10 miles    
Events      
Averages and records for this station are not official NWS values.
T = Trace of Precipitation, MM = Missing Value Source: NWS Daily Summary

Daily Weather History Graph

Daily Weather History Graph

Search for Another Location

Airport or City:

Trip Planner

Search our weather history database for the weather conditions in past years. The results will help you decide how hot, cold, wet, or windy it might be!

Date:

Astronomy

Oct. 19, 2011 Rise Set
Actual Time 7:37 AM CDT 6:28 PM CDT
Civil Twilight 7:08 AM CDT 6:57 PM CDT
Nautical Twilight 6:34 AM CDT 7:30 PM CDT
Astronomical Twilight 6:01 AM CDT 8:04 PM CDT
Moon No Moon Rise 2:14 PM CDT (10/19)
Length of Visible Light 11h 49m
Length of Day
10h 50m
Waning Gibbous, 54% of the Moon is Illuminated
Oct 19
Waning Gibbous
Oct 19
Last Quarter
Oct 26
New
Nov 2
First Quarter
Nov 10
Full

Hourly Weather History & Observations

Time (CDT) Temp. Windchill Dew Point Humidity Pressure Visibility Wind Dir Wind Speed Gust Speed Precip Events Conditions
12:15 AM 26.6 °F 19.1 °F 21.2 °F 80% 30.08 in 10.0 mi WNW 6.9 mph - N/A   Clear
12:34 AM 30.2 °F 21.9 °F 24.8 °F 80% 30.07 in 10.0 mi WNW 9.2 mph - N/A   Clear
12:55 AM 28.4 °F 20.4 °F 23.0 °F 80% 30.07 in 10.0 mi WNW 8.1 mph - N/A   Clear
1:15 AM 26.6 °F 19.1 °F 21.2 °F 80% 30.07 in 10.0 mi NW 6.9 mph - N/A   Clear
1:35 AM 26.6 °F 19.1 °F 21.2 °F 80% 30.07 in 10.0 mi NW 6.9 mph - N/A   Clear
1:55 AM 26.6 °F 18.2 °F 21.2 °F 80% 30.07 in 10.0 mi WNW 8.1 mph - N/A   Clear
2:15 AM 26.6 °F 18.2 °F 21.2 °F 80% 30.07 in 10.0 mi NW 8.1 mph - N/A   Clear
2:35 AM 26.6 °F 19.1 °F 21.2 °F 80% 30.07 in 10.0 mi NW 6.9 mph - N/A   Clear
3:14 AM 33.8 °F 26.4 °F 26.6 °F 75% 30.06 in 10.0 mi NW 9.2 mph - N/A   Overcast
3:35 AM 33.8 °F 26.4 °F 26.6 °F 75% 30.06 in 10.0 mi WNW 9.2 mph - N/A   Overcast
3:55 AM 35.6 °F 27.5 °F 26.6 °F 70% 30.06 in 10.0 mi NW 11.5 mph - N/A   Overcast
4:15 AM 35.6 °F 27.5 °F 26.6 °F 70% 30.06 in 10.0 mi NW 11.5 mph - N/A   Overcast
4:35 AM 35.6 °F 27.5 °F 26.6 °F 70% 30.07 in 10.0 mi NW 11.5 mph - N/A   Overcast
4:55 AM 35.6 °F 27.1 °F 26.6 °F 70% 30.07 in 10.0 mi NW 12.7 mph - N/A   Overcast
5:15 AM 35.6 °F 28.0 °F 26.6 °F 70% 30.08 in 10.0 mi NW 10.4 mph - N/A   Overcast
5:55 AM 35.6 °F 28.6 °F 26.6 °F 70% 30.09 in 10.0 mi WNW 9.2 mph - N/A   Overcast
6:15 AM 35.6 °F 27.5 °F 26.6 °F 70% 30.09 in 10.0 mi NW 11.5 mph - N/A   Overcast
6:35 AM 35.6 °F 28.0 °F 26.6 °F 70% 30.09 in 10.0 mi NW 10.4 mph - N/A   Overcast
6:55 AM 35.6 °F 29.2 °F 26.6 °F 70% 30.10 in 10.0 mi WNW 8.1 mph - N/A   Overcast
7:35 AM 35.6 °F 28.6 °F 26.6 °F 70% 30.10 in 10.0 mi WNW 9.2 mph - N/A   Overcast
7:55 AM 35.6 °F 28.0 °F 26.6 °F 70% 30.11 in 10.0 mi NW 10.4 mph - N/A   Overcast
8:15 AM 35.6 °F 28.0 °F 26.6 °F 70% 30.11 in 10.0 mi WNW 10.4 mph - N/A   Overcast
8:35 AM 35.6 °F 28.0 °F 26.6 °F 70% 30.12 in 10.0 mi WNW 10.4 mph - N/A   Overcast
8:55 AM 37.4 °F 29.3 °F 28.4 °F 70% 30.12 in 10.0 mi NW 12.7 mph - N/A   Overcast
9:14 AM 37.4 °F 28.9 °F 30.2 °F 75% 30.12 in 10.0 mi NW 13.8 mph - N/A   Overcast
9:35 AM 39.2 °F 30.8 °F 30.2 °F 70% 30.13 in 10.0 mi NNW 15.0 mph - N/A   Overcast
9:55 AM 41.0 °F 32.8 °F 30.2 °F 65% 30.12 in 10.0 mi NNW 16.1 mph - N/A   Overcast
10:15 AM 42.8 °F 35.1 °F 30.2 °F 61% 30.12 in 10.0 mi NNW 16.1 mph 19.6 mph N/A   Overcast
10:34 AM 42.8 °F 36.2 °F 30.2 °F 61% 30.12 in 10.0 mi NNW 12.7 mph 20.7 mph N/A   Overcast
10:55 AM 42.8 °F 35.8 °F 30.2 °F 61% 30.13 in 10.0 mi NNW 13.8 mph 19.6 mph N/A   Overcast
11:15 AM 44.6 °F 37.8 °F 30.2 °F 57% 30.12 in 10.0 mi NNW 15.0 mph - N/A   Overcast
11:55 AM 46.4 °F 41.1 °F 32.0 °F 57% 30.12 in 10.0 mi NNW 11.5 mph 17.3 mph N/A   Overcast
12:15 PM 46.4 °F 41.1 °F 32.0 °F 57% 30.12 in 10.0 mi North 11.5 mph - N/A   Overcast
12:35 PM 48.2 °F - 32.0 °F 54% 30.11 in 10.0 mi North 11.5 mph 17.3 mph N/A   Mostly Cloudy
12:55 PM 48.2 °F - 32.0 °F 54% 30.11 in 10.0 mi NNW 13.8 mph 20.7 mph N/A   Mostly Cloudy
1:15 PM 48.2 °F - 32.0 °F 54% 30.10 in 10.0 mi North 12.7 mph 20.7 mph N/A   Overcast
1:35 PM 48.2 °F - 32.0 °F 54% 30.10 in 10.0 mi North 15.0 mph - N/A   Overcast
1:55 PM 48.2 °F - 32.0 °F 54% 30.09 in 10.0 mi NNW 13.8 mph 19.6 mph N/A   Overcast
2:15 PM 48.2 °F - 32.0 °F 54% 30.09 in 10.0 mi NNW 15.0 mph 19.6 mph N/A   Overcast
2:35 PM 46.4 °F 40.7 °F 32.0 °F 57% 30.09 in 10.0 mi NNW 12.7 mph - N/A   Overcast
2:54 PM 46.4 °F 40.4 °F 32.0 °F 57% 30.09 in 10.0 mi NNW 13.8 mph 19.6 mph N/A   Overcast
3:15 PM 46.4 °F 40.1 °F 32.0 °F 57% 30.08 in 10.0 mi NNW 15.0 mph - N/A   Overcast
3:34 PM 46.4 °F 40.4 °F 33.8 °F 62% 30.08 in 10.0 mi NNW 13.8 mph - N/A   Overcast
3:55 PM 46.4 °F 39.5 °F 33.8 °F 62% 30.08 in 10.0 mi NNW 17.3 mph - N/A   Overcast
4:15 PM 46.4 °F 40.4 °F 32.0 °F 57% 30.08 in 10.0 mi NNW 13.8 mph - N/A   Overcast
4:35 PM 46.4 °F 40.1 °F 32.0 °F 57% 30.08 in 10.0 mi North 15.0 mph - N/A   Overcast
4:55 PM 46.4 °F 40.1 °F 32.0 °F 57% 30.08 in 10.0 mi NNW 15.0 mph - N/A   Overcast
5:15 PM 46.4 °F 40.1 °F 32.0 °F 57% 30.08 in 10.0 mi NNW 15.0 mph 21.9 mph N/A   Overcast
5:35 PM 46.4 °F 40.7 °F 32.0 °F 57% 30.08 in 10.0 mi NNW 12.7 mph - N/A   Overcast
5:55 PM 44.6 °F 38.1 °F 30.2 °F 57% 30.08 in 10.0 mi North 13.8 mph - N/A   Overcast
6:15 PM 44.6 °F 38.1 °F 32.0 °F 61% 30.09 in 10.0 mi North 13.8 mph - N/A   Overcast
6:35 PM 44.6 °F 38.4 °F 32.0 °F 61% 30.09 in 10.0 mi NNW 12.7 mph - N/A   Overcast
6:55 PM 44.6 °F 38.1 °F 30.2 °F 57% 30.10 in 10.0 mi NNW 13.8 mph - N/A   Overcast
7:14 PM 42.8 °F 37.0 °F 30.2 °F 61% 30.10 in 10.0 mi NNW 10.4 mph - N/A   Mostly Cloudy
7:55 PM 37.4 °F 30.8 °F 28.4 °F 70% 30.10 in 10.0 mi NW 9.2 mph - N/A   Clear
8:15 PM 35.6 °F 28.6 °F 28.4 °F 75% 30.09 in 10.0 mi NW 9.2 mph - N/A   Clear
8:35 PM 33.8 °F 26.4 °F 28.4 °F 81% 30.09 in 10.0 mi NW 9.2 mph - N/A   Clear
8:55 PM 33.8 °F 29.6 °F 26.6 °F 75% 30.09 in 10.0 mi WNW 4.6 mph - N/A   Scattered Clouds
9:14 PM 35.6 °F 29.2 °F 30.2 °F 81% 30.09 in 10.0 mi WNW 8.1 mph - N/A   Mostly Cloudy
9:35 PM 37.4 °F 31.4 °F 30.2 °F 75% 30.08 in 10.0 mi WNW 8.1 mph - N/A   Overcast
9:55 PM 35.6 °F 29.9 °F 30.2 °F 81% 30.08 in 10.0 mi WNW 6.9 mph - N/A   Mostly Cloudy
10:15 PM 35.6 °F 29.2 °F 28.4 °F 75% 30.08 in 10.0 mi WNW 8.1 mph - N/A   Clear
10:34 PM 33.8 °F 27.0 °F 28.4 °F 81% 30.08 in 10.0 mi WNW 8.1 mph - N/A   Clear
11:15 PM 32.0 °F 25.6 °F 28.4 °F 87% 30.06 in 10.0 mi WNW 6.9 mph - N/A   Clear
11:34 PM 30.2 °F 21.9 °F 26.6 °F 86% 30.06 in 10.0 mi NW 9.2 mph - N/A   Clear
11:55 PM 30.2 °F 24.3 °F 26.6 °F 86% 30.06 in 10.0 mi NW 5.8 mph - N/A   Clear